Flag for Bolivia Weather past 2 weeks in Trinidad, Bolivia

Now
75 °F

Rain. Mostly cloudy.


Feels Like: 74 °F
Forecast: 73 / 88 °F
Wind: 10 mph from North

Location: Trinidad Airport

Current Time: Dec 20, 2014 at 8:24:51 AM

Latest Report: Dec 20, 2014 at 8:00 AM


Visibility: 1 mi

Pressure: 29.77 "Hg

Humidity: 94%

Dew point: 73 °F

Location of TrinidadLocation

Historic Weather in Trinidad — Graph

°F

Trinidad temperature yesterday

Maximum temperature yesterday: 84 °F (at 1:00 PM)
Minimum temperature yesterday: 72 °F (at 8:00 AM)
Average temperature yesterday: 77 °F

Past Weeks' High & Low Weather Summary

 TemperatureHumidityPressure
High93 °F (Dec 5, 2:00 PM)100% (Dec 8, 7:46 AM)29.92 "Hg (Dec 8, 7:46 AM)
Low72 °F (Dec 18, 3:00 PM)47% (Dec 5, 4:00 PM)29.62 "Hg (Dec 7, 4:00 PM)
Average81 °F83%29.78 "Hg
* Reported Dec 5 7:00 AM — Dec 20 7:00 AM, Trinidad, Weather by CustomWeather, © 2014

Note: Actual official high and low records may vary slightly from our data, if they occured in-between our weather recording intervals... More about our weather records

Advertising

Trinidad weather history for previous 24 hours

 ConditionsComfort  
Time TempWeatherWind HumidityBarometerVisibility
7:00 AM
Dec 20
75 °FLight rain. Partly sunny.7 mph100%29.74 "Hg4 mi
6:00 AM75 °FPartly sunny.8 mph94%29.71 "HgN/A
5:00 AM75 °FPartly cloudy.7 mph94%29.68 "HgN/A
9:00 PM
Dec 19
75 °FPassing clouds.5 mph94%29.71 "HgN/A
8:00 PM77 °FPassing clouds.6 mph89%29.71 "HgN/A
7:00 PM79 °FPartly cloudy.9 mph84%29.71 "HgN/A
6:00 PM81 °FBroken clouds.9 mph79%29.68 "HgN/A
5:00 PM82 °FPartly sunny.9 mph79%29.68 "HgN/A
4:00 PM79 °FScattered showers. Broken clouds.6 mph94%29.71 "Hg5 mi
3:00 PM77 °FLight rain. Broken clouds.3 mph94%29.77 "HgN/A
2:00 PM77 °FLight rain. Broken clouds.12 mph94%29.77 "Hg2 mi
1:00 PM84 °FScattered showers. Broken clouds.9 mph74%29.77 "Hg4 mi
12:00 PM82 °FBroken clouds.5 mph79%29.83 "HgN/A
11:00 AM79 °FBroken clouds.5 mph84%29.83 "HgN/A
10:00 AM77 °FPartly sunny.No wind89%29.86 "HgN/A
9:00 AM75 °FPartly sunny.No wind89%29.83 "HgN/A
8:00 AM72 °FLow clouds.No wind100%29.83 "HgN/A
Weather by CustomWeather, © 2014

See weather overviewHow to use our weather pages